Regional Weather Roundup
Issued by NWS

Home | Current Version | Previous Version | Graphics & Text | Print | Product List | Glossary On
Versions: 1 2 3 4 5 6 7 8 9 10 11 12 13 14 15 16 17 18 19 20 21 22 23 24 25 26 27 28 29 30 31 32 33 34 35 36 37 38 39 40 41 42 43 44 45 46 47 48 49 50
000
ASUS43 KTOP 291759
RWRKS

WEATHER ROUNDUP FOR KANSAS
NATIONAL WEATHER SERVICE GOODLAND KS
100 PM CDT FRI JUL 29 2016

NOTE:  "FAIR" INDICATES FEW OR NO CLOUDS BELOW 12,000 FEET WITH NO
SIGNIFICANT WEATHER AND/OR OBSTRUCTIONS TO VISIBILITY.

KSZ001>006-013>018-027>032-041>047-291900-
NORTHWEST KANSAS

CITY           SKY/WX    TMP DP  RH WIND       PRES   REMARKS
GOODLAND       LGT RAIN  68  62  81 SE5       30.16F
6HR MIN TEMP:  61; 6HR MAX TEMP:  70; 6HR PCP: TRACE;

HAYS           MOSUNNY   81  61  50 SE6       30.08F
HILL CITY      MOSUNNY   81  65  58 E5        30.10S
6HR MIN TEMP:  65; 6HR MAX TEMP:  81;

RUSSELL        MOSUNNY   81  65  58 SW7       30.06F
6HR MIN TEMP:  67; 6HR MAX TEMP:  82;

$$

KSZ061>065-074>080-084>089-291900-
SOUTHWEST KANSAS

CITY           SKY/WX    TMP DP  RH WIND       PRES   REMARKS
DODGE CITY     CLOUDY    77  65  66 SW5       30.11S
6HR MIN TEMP:  65; 6HR MAX TEMP:  77; 6HR PCP: TRACE;

ELKHART          N/A     79  64  60 MISG        N/A
GARDEN CITY    MOSUNNY   75  66  73 NE12      30.14S
6HR MIN TEMP:  63; 6HR MAX TEMP:  75;

GREAT BEND     MOSUNNY   77  63  61 CALM      30.07F
LIBERAL        CLOUDY    81  64  57 E7        30.12R
$$

KSZ066>073-081>083-090>101-291900-
SOUTHEAST KANSAS

CITY           SKY/WX    TMP DP  RH WIND       PRES   REMARKS
CHANUTE        CLOUDY    83  71  67 W8        30.02R
6HR MIN TEMP:  69; 6HR MAX TEMP:  83;

COFFEYVILLE    CLOUDY    82  68  62 W5        30.01F
6HR MIN TEMP:  70; 6HR MAX TEMP:  82;

HUTCHINSON     SUNNY     84  66  54 NW8       30.05S
6HR MIN TEMP:  69; 6HR MAX TEMP:  84;

NEWTON         MOSUNNY   81  70  69 NW10      30.05F
PARSONS        MOSUNNY   83  69  62 NW3       30.03R
6HR MIN TEMP:  69; 6HR MAX TEMP:  83;

WICHITA INTL   MOSUNNY   81  67  62 N10       30.03F
6HR MIN TEMP:  69; 6HR MAX TEMP:  82; 6HR PCP:  0.05;

WICHITA JABRA  MOSUNNY   81  68  64 N12       30.03F
6HR MIN TEMP:  69; 6HR MAX TEMP:  81; 6HR PCP:  0.03;

WINFIELD       CLOUDY    80  69  69 VRB5      30.04S
6HR MIN TEMP:  68; 6HR MAX TEMP:  81; 6HR PCP:  0.12;

$$

KSZ007>012-019>026-033>040-048>060-102>105-291900-
NORTHEAST KANSAS

CITY           SKY/WX    TMP DP  RH WIND       PRES   REMARKS
CONCORDIA      PTSUNNY   78  65  63 E5        30.06S
6HR MIN TEMP:  65; 6HR MAX TEMP:  80;

EMPORIA        CLOUDY    81  67  62 VRB3      30.03R
6HR MIN TEMP:  68; 6HR MAX TEMP:  81; 6HR PCP: TRACE;

LAWRENCE       PTSUNNY   82  67  60 CALM      30.01F
6HR MIN TEMP:  66; 6HR MAX TEMP:  83;

MANHATTAN      PTSUNNY   80  68  66 CALM      30.03F
6HR MIN TEMP:  68; 6HR MAX TEMP:  80;

OLATHE IND     PTSUNNY   80  66  62 VRB3      30.02F
6HR MIN TEMP:  68; 6HR MAX TEMP:  83;

OLATHE EXE     CLOUDY    81  64  56 N7        30.02F
6HR MIN TEMP:  69; 6HR MAX TEMP:  82;

SALINA         MOSUNNY   84  66  54 N5        30.04S
6HR MIN TEMP:  70; 6HR MAX TEMP:  86;

TOPEKA BILLARD MOSUNNY   82  66  58 N5        30.01F
6HR MIN TEMP:  67; 6HR MAX TEMP:  83;

TOPEKA FORBES  CLOUDY    82  67  60 NE7       30.02F
6HR MIN TEMP:  68; 6HR MAX TEMP:  84;

$$



USA.gov is the U.S. government's official web portal to all federal, state and local government web resources and services.